owner,sensor,date,latitude,longitude,sea_surface_height_above_sea_level,qcFlag 
COMPS,ioos:station:USF.COMPS:TAR:1,2009-08-03T14:00:00Z,28.1560,-82.7580,0.004,1111122 
COMPS,ioos:station:USF.COMPS:TAR:1,2009-08-03T14:06:00Z,28.1560,-82.7580,0.005,1111122 
COMPS,ioos:station:USF.COMPS:TAR:1,2009-08-03T14:12:00Z,28.1560,-82.7580,0.007,1111122 
COMPS,ioos:station:USF.COMPS:TAR:1,2009-08-03T14:18:00Z,28.1560,-82.7580,0.008,1111122 
COMPS,ioos:station:USF.COMPS:TAR:1,2009-08-03T14:24:00Z,28.1560,-82.7580,0.01,1111122 
COMPS,ioos:station:USF.COMPS:TAR:1,2009-08-03T14:30:00Z,28.1560,-82.7580,0.012,1111122 
COMPS,ioos:station:USF.COMPS:TAR:1,2009-08-03T14:36:00Z,28.1560,-82.7580,0.014,1111122 
COMPS,ioos:station:USF.COMPS:TAR:1,2009-08-03T14:42:00Z,28.1560,-82.7580,0.017,1111122 
COMPS,ioos:station:USF.COMPS:TAR:1,2009-08-03T14:48:00Z,28.1560,-82.7580,0.021,1111122 
COMPS,ioos:station:USF.COMPS:TAR:1,2009-08-03T14:54:00Z,28.1560,-82.7580,0.022,1111122 
COMPS,ioos:station:USF.COMPS:TAR:1,2009-08-03T15:00:00Z,28.1560,-82.7580,0.023,1111122 
COMPS,ioos:station:USF.COMPS:TAR:1,2009-08-03T15:06:00Z,28.1560,-82.7580,0.025,1111122 
COMPS,ioos:station:USF.COMPS:TAR:1,2009-08-03T15:12:00Z,28.1560,-82.7580,0.028,1111122 
COMPS,ioos:station:USF.COMPS:TAR:1,2009-08-03T15:18:00Z,28.1560,-82.7580,0.03,1111122 
COMPS,ioos:station:USF.COMPS:TAR:1,2009-08-03T15:24:00Z,28.1560,-82.7580,0.031,1111122 
COMPS,ioos:station:USF.COMPS:TAR:1,2009-08-03T15:30:00Z,28.1560,-82.7580,0.034,1111122 
COMPS,ioos:station:USF.COMPS:TAR:1,2009-08-03T15:36:00Z,28.1560,-82.7580,0.037,1111122 
COMPS,ioos:station:USF.COMPS:TAR:1,2009-08-03T15:42:00Z,28.1560,-82.7580,0.039,1111122 
COMPS,ioos:station:USF.COMPS:TAR:1,2009-08-03T15:48:00Z,28.1560,-82.7580,0.041,1111122 
COMPS,ioos:station:USF.COMPS:TAR:1,2009-08-03T15:54:00Z,28.1560,-82.7580,0.043,1111122 
COMPS,ioos:station:USF.COMPS:TAR:1,2009-08-03T16:00:00Z,28.1560,-82.7580,0.045,1111122 
COMPS,ioos:station:USF.COMPS:TAR:1,2009-08-03T16:06:00Z,28.1560,-82.7580,0.048,1111122 
COMPS,ioos:station:USF.COMPS:TAR:1,2009-08-03T16:12:00Z,28.1560,-82.7580,0.049,1111122 
COMPS,ioos:station:USF.COMPS:TAR:1,2009-08-03T16:18:00Z,28.1560,-82.7580,0.051,1111122 
COMPS,ioos:station:USF.COMPS:TAR:1,2009-08-03T16:24:00Z,28.1560,-82.7580,0.053,1111122 
COMPS,ioos:station:USF.COMPS:TAR:1,2009-08-03T16:30:00Z,28.1560,-82.7580,0.055,1111122 
COMPS,ioos:station:USF.COMPS:TAR:1,2009-08-03T16:36:00Z,28.1560,-82.7580,0.057,1111122 
COMPS,ioos:station:USF.COMPS:TAR:1,2009-08-03T16:42:00Z,28.1560,-82.7580,0.059,1111122 
COMPS,ioos:station:USF.COMPS:TAR:1,2009-08-03T16:48:00Z,28.1560,-82.7580,0.06,1111122 
COMPS,ioos:station:USF.COMPS:TAR:1,2009-08-03T16:54:00Z,28.1560,-82.7580,0.062,1111122 
COMPS,ioos:station:USF.COMPS:TAR:1,2009-08-03T17:00:00Z,28.1560,-82.7580,0.063,1111122 
COMPS,ioos:station:USF.COMPS:TAR:1,2009-08-03T17:06:00Z,28.1560,-82.7580,0.064,1111122 
COMPS,ioos:station:USF.COMPS:TAR:1,2009-08-03T17:12:00Z,28.1560,-82.7580,0.067,1111122 
COMPS,ioos:station:USF.COMPS:TAR:1,2009-08-03T17:18:00Z,28.1560,-82.7580,0.068,1111122 
COMPS,ioos:station:USF.COMPS:TAR:1,2009-08-03T17:24:00Z,28.1560,-82.7580,0.069,1111122 
COMPS,ioos:station:USF.COMPS:TAR:1,2009-08-03T17:30:00Z,28.1560,-82.7580,0.069,1111122 
COMPS,ioos:station:USF.COMPS:TAR:1,2009-08-03T17:36:00Z,28.1560,-82.7580,0.07,1111122 
COMPS,ioos:station:USF.COMPS:TAR:1,2009-08-03T17:42:00Z,28.1560,-82.7580,0.072,1111122 
COMPS,ioos:station:USF.COMPS:TAR:1,2009-08-03T17:48:00Z,28.1560,-82.7580,0.073,1111122 
COMPS,ioos:station:USF.COMPS:TAR:1,2009-08-03T17:54:00Z,28.1560,-82.7580,0.074,1111122 
COMPS,ioos:station:USF.COMPS:TAR:1,2009-08-03T18:00:00Z,28.1560,-82.7580,0.075,1111122 
COMPS,ioos:station:USF.COMPS:TAR:1,2009-08-03T18:06:00Z,28.1560,-82.7580,0.076,1111122 
COMPS,ioos:station:USF.COMPS:TAR:1,2009-08-03T18:12:00Z,28.1560,-82.7580,0.077,1111122 
COMPS,ioos:station:USF.COMPS:TAR:1,2009-08-03T18:18:00Z,28.1560,-82.7580,0.076,1111122 
COMPS,ioos:station:USF.COMPS:TAR:1,2009-08-03T18:24:00Z,28.1560,-82.7580,0.076,1111122 
COMPS,ioos:station:USF.COMPS:TAR:1,2009-08-03T18:30:00Z,28.1560,-82.7580,0.076,1111122 
COMPS,ioos:station:USF.COMPS:TAR:1,2009-08-03T18:36:00Z,28.1560,-82.7580,0.075,1111122 
COMPS,ioos:station:USF.COMPS:TAR:1,2009-08-03T18:42:00Z,28.1560,-82.7580,0.076,1111122 
COMPS,ioos:station:USF.COMPS:TAR:1,2009-08-03T18:48:00Z,28.1560,-82.7580,0.075,1111122 
COMPS,ioos:station:USF.COMPS:TAR:1,2009-08-03T18:54:00Z,28.1560,-82.7580,0.074,1111122 
COMPS,ioos:station:USF.COMPS:TAR:1,2009-08-03T19:00:00Z,28.1560,-82.7580,0.074,1111122 
COMPS,ioos:station:USF.COMPS:TAR:1,2009-08-03T19:06:00Z,28.1560,-82.7580,0.073,1111122 
COMPS,ioos:station:USF.COMPS:TAR:1,2009-08-03T19:12:00Z,28.1560,-82.7580,0.072,1111122 
COMPS,ioos:station:USF.COMPS:TAR:1,2009-08-03T19:18:00Z,28.1560,-82.7580,0.073,1111122 
COMPS,ioos:station:USF.COMPS:TAR:1,2009-08-03T19:24:00Z,28.1560,-82.7580,0.072,1111122 
COMPS,ioos:station:USF.COMPS:TAR:1,2009-08-03T19:30:00Z,28.1560,-82.7580,0.072,1111122 
COMPS,ioos:station:USF.COMPS:TAR:1,2009-08-03T19:36:00Z,28.1560,-82.7580,0.071,1111122 
COMPS,ioos:station:USF.COMPS:TAR:1,2009-08-03T19:42:00Z,28.1560,-82.7580,0.07,1111122 
COMPS,ioos:station:USF.COMPS:TAR:1,2009-08-03T19:48:00Z,28.1560,-82.7580,0.069,1111122 
COMPS,ioos:station:USF.COMPS:TAR:1,2009-08-03T19:54:00Z,28.1560,-82.7580,0.068,1111122 
COMPS,ioos:station:USF.COMPS:TAR:1,2009-08-03T20:00:00Z,28.1560,-82.7580,0.067,1111122 
COMPS,ioos:station:USF.COMPS:TAR:1,2009-08-03T20:06:00Z,28.1560,-82.7580,0.067,1111122 
COMPS,ioos:station:USF.COMPS:TAR:1,2009-08-03T20:12:00Z,28.1560,-82.7580,0.065,1111122 
COMPS,ioos:station:USF.COMPS:TAR:1,2009-08-03T20:18:00Z,28.1560,-82.7580,0.064,1111122 
COMPS,ioos:station:USF.COMPS:TAR:1,2009-08-03T20:24:00Z,28.1560,-82.7580,0.063,1111122 
COMPS,ioos:station:USF.COMPS:TAR:1,2009-08-03T20:30:00Z,28.1560,-82.7580,0.063,1111122 
COMPS,ioos:station:USF.COMPS:TAR:1,2009-08-03T20:36:00Z,28.1560,-82.7580,0.061,1111122 
COMPS,ioos:station:USF.COMPS:TAR:1,2009-08-03T20:42:00Z,28.1560,-82.7580,0.06,1111122 
COMPS,ioos:station:USF.COMPS:TAR:1,2009-08-03T20:48:00Z,28.1560,-82.7580,0.059,1111122 
COMPS,ioos:station:USF.COMPS:TAR:1,2009-08-03T20:54:00Z,28.1560,-82.7580,0.057,1111122 
COMPS,ioos:station:USF.COMPS:TAR:1,2009-08-03T21:00:00Z,28.1560,-82.7580,0.055,1111122 
COMPS,ioos:station:USF.COMPS:TAR:1,2009-08-03T21:06:00Z,28.1560,-82.7580,0.054,1111122 
COMPS,ioos:station:USF.COMPS:TAR:1,2009-08-03T21:12:00Z,28.1560,-82.7580,0.052,1111122 
COMPS,ioos:station:USF.COMPS:TAR:1,2009-08-03T21:18:00Z,28.1560,-82.7580,0.051,1111122 
COMPS,ioos:station:USF.COMPS:TAR:1,2009-08-03T21:24:00Z,28.1560,-82.7580,0.048,1111122 
COMPS,ioos:station:USF.COMPS:TAR:1,2009-08-03T21:30:00Z,28.1560,-82.7580,0.046,1111122 
COMPS,ioos:station:USF.COMPS:TAR:1,2009-08-03T21:36:00Z,28.1560,-82.7580,0.043,1111122 
COMPS,ioos:station:USF.COMPS:TAR:1,2009-08-03T21:42:00Z,28.1560,-82.7580,0.041,1111122 
COMPS,ioos:station:USF.COMPS:TAR:1,2009-08-03T21:48:00Z,28.1560,-82.7580,0.039,1111122 
COMPS,ioos:station:USF.COMPS:TAR:1,2009-08-03T21:54:00Z,28.1560,-82.7580,0.038,1111122 
COMPS,ioos:station:USF.COMPS:TAR:1,2009-08-03T22:00:00Z,28.1560,-82.7580,0.036,1111122 
COMPS,ioos:station:USF.COMPS:TAR:1,2009-08-03T22:06:00Z,28.1560,-82.7580,0.032,1111122 
COMPS,ioos:station:USF.COMPS:TAR:1,2009-08-03T22:12:00Z,28.1560,-82.7580,0.029,1111122 
COMPS,ioos:station:USF.COMPS:TAR:1,2009-08-03T22:18:00Z,28.1560,-82.7580,0.025,1111122 
COMPS,ioos:station:USF.COMPS:TAR:1,2009-08-03T22:24:00Z,28.1560,-82.7580,0.023,1111122 
COMPS,ioos:station:USF.COMPS:TAR:1,2009-08-03T22:30:00Z,28.1560,-82.7580,0.023,1111122 
COMPS,ioos:station:USF.COMPS:TAR:1,2009-08-03T22:36:00Z,28.1560,-82.7580,0.023,1111122 
COMPS,ioos:station:USF.COMPS:TAR:1,2009-08-03T22:42:00Z,28.1560,-82.7580,0.022,1111122 
COMPS,ioos:station:USF.COMPS:TAR:1,2009-08-03T22:48:00Z,28.1560,-82.7580,0.02,1111122 
COMPS,ioos:station:USF.COMPS:TAR:1,2009-08-03T22:54:00Z,28.1560,-82.7580,0.018,1111122 
COMPS,ioos:station:USF.COMPS:TAR:1,2009-08-03T23:00:00Z,28.1560,-82.7580,0.015,1111122 
COMPS,ioos:station:USF.COMPS:TAR:1,2009-08-03T23:06:00Z,28.1560,-82.7580,0.013,1111122 
COMPS,ioos:station:USF.COMPS:TAR:1,2009-08-03T23:12:00Z,28.1560,-82.7580,0.009,1111122 
COMPS,ioos:station:USF.COMPS:TAR:1,2009-08-03T23:18:00Z,28.1560,-82.7580,0.007,1111122 
COMPS,ioos:station:USF.COMPS:TAR:1,2009-08-03T23:24:00Z,28.1560,-82.7580,0.006,1111122 
COMPS,ioos:station:USF.COMPS:TAR:1,2009-08-03T23:30:00Z,28.1560,-82.7580,0.006,1111122 
COMPS,ioos:station:USF.COMPS:TAR:1,2009-08-03T23:36:00Z,28.1560,-82.7580,0.004,1111122 
COMPS,ioos:station:USF.COMPS:TAR:1,2009-08-03T23:42:00Z,28.1560,-82.7580,0.001,1111122 
COMPS,ioos:station:USF.COMPS:TAR:1,2009-08-03T23:48:00Z,28.1560,-82.7580,-0.004,1111122 
COMPS,ioos:station:USF.COMPS:TAR:1,2009-08-03T23:54:00Z,28.1560,-82.7580,-0.008,1111122 
COMPS,ioos:station:USF.COMPS:TAR:1,2009-08-04T00:00:00Z,28.1560,-82.7580,-0.012,1111122 
COMPS,ioos:station:USF.COMPS:TAR:1,2009-08-04T00:06:00Z,28.1560,-82.7580,-0.016,1111122 
COMPS,ioos:station:USF.COMPS:TAR:1,2009-08-04T00:12:00Z,28.1560,-82.7580,-0.019,1111122 
COMPS,ioos:station:USF.COMPS:TAR:1,2009-08-04T00:18:00Z,28.1560,-82.7580,-0.021,1111122 
COMPS,ioos:station:USF.COMPS:TAR:1,2009-08-04T00:24:00Z,28.1560,-82.7580,-0.024,1111122 
COMPS,ioos:station:USF.COMPS:TAR:1,2009-08-04T00:30:00Z,28.1560,-82.7580,-0.026,1111122 
COMPS,ioos:station:USF.COMPS:TAR:1,2009-08-04T00:36:00Z,28.1560,-82.7580,-0.028,1111122 
COMPS,ioos:station:USF.COMPS:TAR:1,2009-08-04T00:42:00Z,28.1560,-82.7580,-0.03,1111122 
COMPS,ioos:station:USF.COMPS:TAR:1,2009-08-04T00:48:00Z,28.1560,-82.7580,-0.032,1111122 
COMPS,ioos:station:USF.COMPS:TAR:1,2009-08-04T00:54:00Z,28.1560,-82.7580,-0.034,1111122 
COMPS,ioos:station:USF.COMPS:TAR:1,2009-08-04T01:00:00Z,28.1560,-82.7580,-0.036,1111122 
COMPS,ioos:station:USF.COMPS:TAR:1,2009-08-04T01:06:00Z,28.1560,-82.7580,-0.037,1111122 
COMPS,ioos:station:USF.COMPS:TAR:1,2009-08-04T01:12:00Z,28.1560,-82.7580,-0.039,1111122 
COMPS,ioos:station:USF.COMPS:TAR:1,2009-08-04T01:18:00Z,28.1560,-82.7580,-0.041,1111122 
COMPS,ioos:station:USF.COMPS:TAR:1,2009-08-04T01:24:00Z,28.1560,-82.7580,-0.042,1111122 
COMPS,ioos:station:USF.COMPS:TAR:1,2009-08-04T01:30:00Z,28.1560,-82.7580,-0.044,1111122 
COMPS,ioos:station:USF.COMPS:TAR:1,2009-08-04T01:36:00Z,28.1560,-82.7580,-0.045,1111122 
COMPS,ioos:station:USF.COMPS:TAR:1,2009-08-04T01:42:00Z,28.1560,-82.7580,-0.046,1111122 
COMPS,ioos:station:USF.COMPS:TAR:1,2009-08-04T01:48:00Z,28.1560,-82.7580,-0.047,1111122 
COMPS,ioos:station:USF.COMPS:TAR:1,2009-08-04T01:54:00Z,28.1560,-82.7580,-0.048,1111122 
COMPS,ioos:station:USF.COMPS:TAR:1,2009-08-04T02:00:00Z,28.1560,-82.7580,-0.049,1111122 
COMPS,ioos:station:USF.COMPS:TAR:1,2009-08-04T02:06:00Z,28.1560,-82.7580,-0.05,1111122 
COMPS,ioos:station:USF.COMPS:TAR:1,2009-08-04T02:12:00Z,28.1560,-82.7580,-0.051,1111122 
COMPS,ioos:station:USF.COMPS:TAR:1,2009-08-04T02:18:00Z,28.1560,-82.7580,-0.052,1111122 
COMPS,ioos:station:USF.COMPS:TAR:1,2009-08-04T02:24:00Z,28.1560,-82.7580,-0.053,1111122 
COMPS,ioos:station:USF.COMPS:TAR:1,2009-08-04T02:30:00Z,28.1560,-82.7580,-0.053,1111122 
COMPS,ioos:station:USF.COMPS:TAR:1,2009-08-04T02:36:00Z,28.1560,-82.7580,-0.054,1111122 
COMPS,ioos:station:USF.COMPS:TAR:1,2009-08-04T02:42:00Z,28.1560,-82.7580,-0.054,1111122 
COMPS,ioos:station:USF.COMPS:TAR:1,2009-08-04T02:48:00Z,28.1560,-82.7580,-0.054,1111122 
COMPS,ioos:station:USF.COMPS:TAR:1,2009-08-04T02:54:00Z,28.1560,-82.7580,-0.054,1111122 
COMPS,ioos:station:USF.COMPS:TAR:1,2009-08-04T03:00:00Z,28.1560,-82.7580,-0.054,1111122 
COMPS,ioos:station:USF.COMPS:TAR:1,2009-08-04T03:06:00Z,28.1560,-82.7580,-0.054,1111122 
COMPS,ioos:station:USF.COMPS:TAR:1,2009-08-04T03:12:00Z,28.1560,-82.7580,-0.054,1111122 
COMPS,ioos:station:USF.COMPS:TAR:1,2009-08-04T03:18:00Z,28.1560,-82.7580,-0.054,1111122 
COMPS,ioos:station:USF.COMPS:TAR:1,2009-08-04T03:24:00Z,28.1560,-82.7580,-0.054,1111122 
COMPS,ioos:station:USF.COMPS:TAR:1,2009-08-04T03:30:00Z,28.1560,-82.7580,-0.054,1111122 
COMPS,ioos:station:USF.COMPS:TAR:1,2009-08-04T03:36:00Z,28.1560,-82.7580,-0.054,1111122 
COMPS,ioos:station:USF.COMPS:TAR:1,2009-08-04T03:42:00Z,28.1560,-82.7580,-0.054,1111122 
COMPS,ioos:station:USF.COMPS:TAR:1,2009-08-04T03:48:00Z,28.1560,-82.7580,-0.054,1111122 
COMPS,ioos:station:USF.COMPS:TAR:1,2009-08-04T03:54:00Z,28.1560,-82.7580,-0.054,1111122 
COMPS,ioos:station:USF.COMPS:TAR:1,2009-08-04T04:00:00Z,28.1560,-82.7580,-0.054,1111122 
COMPS,ioos:station:USF.COMPS:TAR:1,2009-08-04T04:06:00Z,28.1560,-82.7580,-0.053,1111122 
COMPS,ioos:station:USF.COMPS:TAR:1,2009-08-04T04:12:00Z,28.1560,-82.7580,-0.053,1111122 
COMPS,ioos:station:USF.COMPS:TAR:1,2009-08-04T04:18:00Z,28.1560,-82.7580,-0.052,1111122 
COMPS,ioos:station:USF.COMPS:TAR:1,2009-08-04T04:24:00Z,28.1560,-82.7580,-0.051,1111122 
COMPS,ioos:station:USF.COMPS:TAR:1,2009-08-04T04:30:00Z,28.1560,-82.7580,-0.051,1111122 
COMPS,ioos:station:USF.COMPS:TAR:1,2009-08-04T04:36:00Z,28.1560,-82.7580,-0.05,1111122 
COMPS,ioos:station:USF.COMPS:TAR:1,2009-08-04T04:42:00Z,28.1560,-82.7580,-0.049,1111122 
COMPS,ioos:station:USF.COMPS:TAR:1,2009-08-04T04:48:00Z,28.1560,-82.7580,-0.048,1111122 
COMPS,ioos:station:USF.COMPS:TAR:1,2009-08-04T04:54:00Z,28.1560,-82.7580,-0.047,1111122 
COMPS,ioos:station:USF.COMPS:TAR:1,2009-08-04T05:00:00Z,28.1560,-82.7580,-0.047,1111122 
COMPS,ioos:station:USF.COMPS:TAR:1,2009-08-04T05:06:00Z,28.1560,-82.7580,-0.045,1111122 
COMPS,ioos:station:USF.COMPS:TAR:1,2009-08-04T05:12:00Z,28.1560,-82.7580,-0.044,1111122 
COMPS,ioos:station:USF.COMPS:TAR:1,2009-08-04T05:18:00Z,28.1560,-82.7580,-0.043,1111122 
COMPS,ioos:station:USF.COMPS:TAR:1,2009-08-04T05:24:00Z,28.1560,-82.7580,-0.042,1111122 
COMPS,ioos:station:USF.COMPS:TAR:1,2009-08-04T05:30:00Z,28.1560,-82.7580,-0.041,1111122 
COMPS,ioos:station:USF.COMPS:TAR:1,2009-08-04T05:36:00Z,28.1560,-82.7580,-0.04,1111122 
COMPS,ioos:station:USF.COMPS:TAR:1,2009-08-04T05:42:00Z,28.1560,-82.7580,-0.039,1111122 
COMPS,ioos:station:USF.COMPS:TAR:1,2009-08-04T05:48:00Z,28.1560,-82.7580,-0.038,1111122 
COMPS,ioos:station:USF.COMPS:TAR:1,2009-08-04T05:54:00Z,28.1560,-82.7580,-0.037,1111122 
COMPS,ioos:station:USF.COMPS:TAR:1,2009-08-04T06:00:00Z,28.1560,-82.7580,-0.037,1111122 
COMPS,ioos:station:USF.COMPS:TAR:1,2009-08-04T06:06:00Z,28.1560,-82.7580,-0.036,1111122 
COMPS,ioos:station:USF.COMPS:TAR:1,2009-08-04T06:12:00Z,28.1560,-82.7580,-0.035,1111122 
COMPS,ioos:station:USF.COMPS:TAR:1,2009-08-04T06:18:00Z,28.1560,-82.7580,-0.034,1111122 
COMPS,ioos:station:USF.COMPS:TAR:1,2009-08-04T06:24:00Z,28.1560,-82.7580,-0.033,1111122 
COMPS,ioos:station:USF.COMPS:TAR:1,2009-08-04T06:30:00Z,28.1560,-82.7580,-0.032,1111122 
COMPS,ioos:station:USF.COMPS:TAR:1,2009-08-04T06:36:00Z,28.1560,-82.7580,-0.031,1111122 
COMPS,ioos:station:USF.COMPS:TAR:1,2009-08-04T06:42:00Z,28.1560,-82.7580,-0.031,1111122 
COMPS,ioos:station:USF.COMPS:TAR:1,2009-08-04T06:48:00Z,28.1560,-82.7580,-0.03,1111122 
COMPS,ioos:station:USF.COMPS:TAR:1,2009-08-04T06:54:00Z,28.1560,-82.7580,-0.029,1111122 
COMPS,ioos:station:USF.COMPS:TAR:1,2009-08-04T07:00:00Z,28.1560,-82.7580,-0.029,1111122 
COMPS,ioos:station:USF.COMPS:TAR:1,2009-08-04T07:06:00Z,28.1560,-82.7580,-0.029,1111122 
COMPS,ioos:station:USF.COMPS:TAR:1,2009-08-04T07:12:00Z,28.1560,-82.7580,-0.028,1111122 
COMPS,ioos:station:USF.COMPS:TAR:1,2009-08-04T07:18:00Z,28.1560,-82.7580,-0.028,1111122 
COMPS,ioos:station:USF.COMPS:TAR:1,2009-08-04T07:24:00Z,28.1560,-82.7580,-0.028,1111122 
COMPS,ioos:station:USF.COMPS:TAR:1,2009-08-04T07:30:00Z,28.1560,-82.7580,-0.028,1111122 
COMPS,ioos:station:USF.COMPS:TAR:1,2009-08-04T07:36:00Z,28.1560,-82.7580,-0.027,1111122 
COMPS,ioos:station:USF.COMPS:TAR:1,2009-08-04T07:42:00Z,28.1560,-82.7580,-0.027,1111122 
COMPS,ioos:station:USF.COMPS:TAR:1,2009-08-04T07:48:00Z,28.1560,-82.7580,-0.026,1111122 
COMPS,ioos:station:USF.COMPS:TAR:1,2009-08-04T07:54:00Z,28.1560,-82.7580,-0.026,1111122 
COMPS,ioos:station:USF.COMPS:TAR:1,2009-08-04T08:00:00Z,28.1560,-82.7580,-0.026,1111122 
COMPS,ioos:station:USF.COMPS:TAR:1,2009-08-04T08:06:00Z,28.1560,-82.7580,-0.026,1111122 
COMPS,ioos:station:USF.COMPS:TAR:1,2009-08-04T08:12:00Z,28.1560,-82.7580,-0.026,1111122 
COMPS,ioos:station:USF.COMPS:TAR:1,2009-08-04T08:18:00Z,28.1560,-82.7580,-0.026,1111122 
COMPS,ioos:station:USF.COMPS:TAR:1,2009-08-04T08:24:00Z,28.1560,-82.7580,-0.026,1111122 
COMPS,ioos:station:USF.COMPS:TAR:1,2009-08-04T08:30:00Z,28.1560,-82.7580,-0.026,1111122 
COMPS,ioos:station:USF.COMPS:TAR:1,2009-08-04T08:36:00Z,28.1560,-82.7580,-0.026,1111122 
COMPS,ioos:station:USF.COMPS:TAR:1,2009-08-04T08:42:00Z,28.1560,-82.7580,-0.026,1111122 
COMPS,ioos:station:USF.COMPS:TAR:1,2009-08-04T08:48:00Z,28.1560,-82.7580,-0.027,1111122 
COMPS,ioos:station:USF.COMPS:TAR:1,2009-08-04T08:54:00Z,28.1560,-82.7580,-0.027,1111122 
COMPS,ioos:station:USF.COMPS:TAR:1,2009-08-04T09:00:00Z,28.1560,-82.7580,-0.027,1111122 
COMPS,ioos:station:USF.COMPS:TAR:1,2009-08-04T09:06:00Z,28.1560,-82.7580,-0.027,1111122 
COMPS,ioos:station:USF.COMPS:TAR:1,2009-08-04T09:12:00Z,28.1560,-82.7580,-0.027,1111122 
COMPS,ioos:station:USF.COMPS:TAR:1,2009-08-04T09:18:00Z,28.1560,-82.7580,-0.027,1111122 
COMPS,ioos:station:USF.COMPS:TAR:1,2009-08-04T09:24:00Z,28.1560,-82.7580,-0.028,1111122 
COMPS,ioos:station:USF.COMPS:TAR:1,2009-08-04T09:30:00Z,28.1560,-82.7580,-0.028,1111122 
COMPS,ioos:station:USF.COMPS:TAR:1,2009-08-04T09:36:00Z,28.1560,-82.7580,-0.028,1111122 
COMPS,ioos:station:USF.COMPS:TAR:1,2009-08-04T09:42:00Z,28.1560,-82.7580,-0.029,1111122 
COMPS,ioos:station:USF.COMPS:TAR:1,2009-08-04T09:48:00Z,28.1560,-82.7580,-0.029,1111122 
COMPS,ioos:station:USF.COMPS:TAR:1,2009-08-04T09:54:00Z,28.1560,-82.7580,-0.03,1111122 
COMPS,ioos:station:USF.COMPS:TAR:1,2009-08-04T10:00:00Z,28.1560,-82.7580,-0.03,1111122 
COMPS,ioos:station:USF.COMPS:TAR:1,2009-08-04T10:06:00Z,28.1560,-82.7580,-0.03,1111122 
COMPS,ioos:station:USF.COMPS:TAR:1,2009-08-04T10:12:00Z,28.1560,-82.7580,-0.031,1111122 
COMPS,ioos:station:USF.COMPS:TAR:1,2009-08-04T10:18:00Z,28.1560,-82.7580,-0.031,1111122 
COMPS,ioos:station:USF.COMPS:TAR:1,2009-08-04T10:24:00Z,28.1560,-82.7580,-0.031,1111122 
COMPS,ioos:station:USF.COMPS:TAR:1,2009-08-04T10:30:00Z,28.1560,-82.7580,-0.032,1111122 
COMPS,ioos:station:USF.COMPS:TAR:1,2009-08-04T10:36:00Z,28.1560,-82.7580,-0.033,1111122 
COMPS,ioos:station:USF.COMPS:TAR:1,2009-08-04T10:42:00Z,28.1560,-82.7580,-0.033,1111122 
COMPS,ioos:station:USF.COMPS:TAR:1,2009-08-04T10:48:00Z,28.1560,-82.7580,-0.034,1111122 
COMPS,ioos:station:USF.COMPS:TAR:1,2009-08-04T10:54:00Z,28.1560,-82.7580,-0.034,1111122 
COMPS,ioos:station:USF.COMPS:TAR:1,2009-08-04T11:00:00Z,28.1560,-82.7580,-0.034,1111122 
COMPS,ioos:station:USF.COMPS:TAR:1,2009-08-04T11:06:00Z,28.1560,-82.7580,-0.034,1111122 
COMPS,ioos:station:USF.COMPS:TAR:1,2009-08-04T11:12:00Z,28.1560,-82.7580,-0.035,1111122 
COMPS,ioos:station:USF.COMPS:TAR:1,2009-08-04T11:18:00Z,28.1560,-82.7580,-0.035,1111122 
COMPS,ioos:station:USF.COMPS:TAR:1,2009-08-04T11:24:00Z,28.1560,-82.7580,-0.035,1111122 
COMPS,ioos:station:USF.COMPS:TAR:1,2009-08-04T11:30:00Z,28.1560,-82.7580,-0.035,1111122 
COMPS,ioos:station:USF.COMPS:TAR:1,2009-08-04T11:36:00Z,28.1560,-82.7580,-0.035,1111122 
COMPS,ioos:station:USF.COMPS:TAR:1,2009-08-04T11:42:00Z,28.1560,-82.7580,-0.035,1111122 
COMPS,ioos:station:USF.COMPS:TAR:1,2009-08-04T11:48:00Z,28.1560,-82.7580,-0.037,1111122 
COMPS,ioos:station:USF.COMPS:TAR:1,2009-08-04T11:54:00Z,28.1560,-82.7580,-0.037,1111122 
COMPS,ioos:station:USF.COMPS:TAR:1,2009-08-04T12:00:00Z,28.1560,-82.7580,-0.036,1111122 
COMPS,ioos:station:USF.COMPS:TAR:1,2009-08-04T12:06:00Z,28.1560,-82.7580,-0.033,1111122 
COMPS,ioos:station:USF.COMPS:TAR:1,2009-08-04T12:12:00Z,28.1560,-82.7580,-0.031,1111122 
COMPS,ioos:station:USF.COMPS:TAR:1,2009-08-04T12:18:00Z,28.1560,-82.7580,-0.03,1111122 
COMPS,ioos:station:USF.COMPS:TAR:1,2009-08-04T12:24:00Z,28.1560,-82.7580,-0.028,1111122 
COMPS,ioos:station:USF.COMPS:TAR:1,2009-08-04T12:30:00Z,28.1560,-82.7580,-0.026,1111122 
COMPS,ioos:station:USF.COMPS:TAR:1,2009-08-04T12:36:00Z,28.1560,-82.7580,-0.026,1111122 
COMPS,ioos:station:USF.COMPS:TAR:1,2009-08-04T12:42:00Z,28.1560,-82.7580,-0.027,1111122 
COMPS,ioos:station:USF.COMPS:TAR:1,2009-08-04T12:48:00Z,28.1560,-82.7580,-0.026,1111122 
COMPS,ioos:station:USF.COMPS:TAR:1,2009-08-04T12:54:00Z,28.1560,-82.7580,-0.026,1111122 
COMPS,ioos:station:USF.COMPS:TAR:1,2009-08-04T13:00:00Z,28.1560,-82.7580,-0.026,1111122 
COMPS,ioos:station:USF.COMPS:TAR:1,2009-08-04T13:06:00Z,28.1560,-82.7580,-0.026,1111122 
COMPS,ioos:station:USF.COMPS:TAR:1,2009-08-04T13:12:00Z,28.1560,-82.7580,-0.025,1111122 
COMPS,ioos:station:USF.COMPS:TAR:1,2009-08-04T13:18:00Z,28.1560,-82.7580,-0.025,1111122 
COMPS,ioos:station:USF.COMPS:TAR:1,2009-08-04T13:24:00Z,28.1560,-82.7580,-0.025,1111122 
COMPS,ioos:station:USF.COMPS:TAR:1,2009-08-04T13:30:00Z,28.1560,-82.7580,-0.024,1111122 
COMPS,ioos:station:USF.COMPS:TAR:1,2009-08-04T13:36:00Z,28.1560,-82.7580,-0.022,1111122 
COMPS,ioos:station:USF.COMPS:TAR:1,2009-08-04T13:42:00Z,28.1560,-82.7580,-0.02,1111122 
COMPS,ioos:station:USF.COMPS:TAR:1,2009-08-04T13:48:00Z,28.1560,-82.7580,-0.019,1111122 
COMPS,ioos:station:USF.COMPS:TAR:1,2009-08-04T13:54:00Z,28.1560,-82.7580,-0.017,1111122 
COMPS,ioos:station:USF.COMPS:TAR:1,2009-08-04T14:00:00Z,28.1560,-82.7580,-0.016,1111122 
COMPS,ioos:station:USF.COMPS:TAR:1,2009-08-04T14:06:00Z,28.1560,-82.7580,-0.014,1111122 
COMPS,ioos:station:USF.COMPS:TAR:1,2009-08-04T14:12:00Z,28.1560,-82.7580,-0.012,1111122 
COMPS,ioos:station:USF.COMPS:TAR:1,2009-08-04T14:18:00Z,28.1560,-82.7580,-0.011,1111122 
COMPS,ioos:station:USF.COMPS:TAR:1,2009-08-04T14:24:00Z,28.1560,-82.7580,-0.009,1111122 
COMPS,ioos:station:USF.COMPS:TAR:1,2009-08-04T14:30:00Z,28.1560,-82.7580,-0.007,1111122 
COMPS,ioos:station:USF.COMPS:TAR:1,2009-08-04T14:36:00Z,28.1560,-82.7580,-0.004,1111122 
COMPS,ioos:station:USF.COMPS:TAR:1,2009-08-04T14:42:00Z,28.1560,-82.7580,-0.001,1111122 
COMPS,ioos:station:USF.COMPS:TAR:1,2009-08-04T14:48:00Z,28.1560,-82.7580,0.001,1111122 
COMPS,ioos:station:USF.COMPS:TAR:1,2009-08-04T14:54:00Z,28.1560,-82.7580,0.003,1111122 
COMPS,ioos:station:USF.COMPS:TAR:1,2009-08-04T16:00:00Z,28.1560,-82.7580,0.031,1111122 
COMPS,ioos:station:USF.COMPS:TAR:1,2009-08-04T16:06:00Z,28.1560,-82.7580,0.033,1111122 
COMPS,ioos:station:USF.COMPS:TAR:1,2009-08-04T16:12:00Z,28.1560,-82.7580,0.035,1111122 
COMPS,ioos:station:USF.COMPS:TAR:1,2009-08-04T16:18:00Z,28.1560,-82.7580,0.037,1111122 
COMPS,ioos:station:USF.COMPS:TAR:1,2009-08-04T16:24:00Z,28.1560,-82.7580,0.039,1111122 
COMPS,ioos:station:USF.COMPS:TAR:1,2009-08-04T16:30:00Z,28.1560,-82.7580,0.041,1111122 
COMPS,ioos:station:USF.COMPS:TAR:1,2009-08-04T16:36:00Z,28.1560,-82.7580,0.042,1111122 
COMPS,ioos:station:USF.COMPS:TAR:1,2009-08-04T16:42:00Z,28.1560,-82.7580,0.044,1111122 
COMPS,ioos:station:USF.COMPS:TAR:1,2009-08-04T16:48:00Z,28.1560,-82.7580,0.045,1111122 
COMPS,ioos:station:USF.COMPS:TAR:1,2009-08-04T16:54:00Z,28.1560,-82.7580,0.046,1111122 
COMPS,ioos:station:USF.COMPS:TAR:1,2009-08-04T17:00:00Z,28.1560,-82.7580,0.048,1111122 
COMPS,ioos:station:USF.COMPS:TAR:1,2009-08-04T17:06:00Z,28.1560,-82.7580,0.05,1111122 
COMPS,ioos:station:USF.COMPS:TAR:1,2009-08-04T17:12:00Z,28.1560,-82.7580,0.052,1111122 
COMPS,ioos:station:USF.COMPS:TAR:1,2009-08-04T17:18:00Z,28.1560,-82.7580,0.054,1111122 
COMPS,ioos:station:USF.COMPS:TAR:1,2009-08-04T17:24:00Z,28.1560,-82.7580,0.056,1111122 
COMPS,ioos:station:USF.COMPS:TAR:1,2009-08-04T17:30:00Z,28.1560,-82.7580,0.057,1111122 
COMPS,ioos:station:USF.COMPS:TAR:1,2009-08-04T17:36:00Z,28.1560,-82.7580,0.058,1111122 
COMPS,ioos:station:USF.COMPS:TAR:1,2009-08-04T17:42:00Z,28.1560,-82.7580,0.06,1111122 
COMPS,ioos:station:USF.COMPS:TAR:1,2009-08-04T17:48:00Z,28.1560,-82.7580,0.061,1111122 
COMPS,ioos:station:USF.COMPS:TAR:1,2009-08-04T17:54:00Z,28.1560,-82.7580,0.062,1111122 